Regional Weather Roundup
Issued by NWS

Home | Current Version | Previous Version | Graphics & Text | Print | Product List | Glossary On
Versions: 1 2 3 4 5 6 7 8 9 10 11 12 13 14 15 16 17 18 19 20 21 22 23 24 25 26 27 28 29 30 31 32 33 34 35 36 37 38 39 40 41 42 43 44 45 46 47 48 49 50
550
ASUS43 KMKX 051321
RWRWI

WISCONSIN REGIONAL WEATHER ROUNDUP
NATIONAL WEATHER SERVICE MILWAUKEE/SULLIVAN WI
800 AM CDT THU MAY 05 2016

NOTE: "FAIR" INDICATES FEW OR NO CLOUDS BELOW 12,000 FEET WITH NO
SIGNIFICANT WEATHER AND/OR OBSTRUCTIONS TO VISIBILITY.

WIZ001-002-006>008-014>016-023>028-051400-
NORTHWEST WISCONSIN

CITY           SKY/WX    TMP DP  RH WIND       PRES   REMARKS
SUPERIOR ARPT  CLOUDY    41  38  90 W5        30.03S
ASHLAND        CLOUDY    42  36  79 CALM      30.04S
HAYWARD        SUNNY     42  33  70 SW3       30.05S
SIREN          LGT RAIN  43  40  88 CALM      30.06S
CUMBERLAND     PTSUNNY   46  34  61 W6        30.07R
RICE LAKE      SUNNY     43  33  68 CALM      30.08R
CHETEK         SUNNY     43  37  81 CALM      30.07R
LADYSMITH      PTSUNNY   40  36  85 CALM      30.07S
EAU CLAIRE     SUNNY     42  36  79 CALM      30.07R
MENOMONIE      CLOUDY    46  37  70 CALM      30.08R
NEW RICHMOND   LGT RAIN  43  35  73 CALM      30.07R
OSCEOLA        CLOUDY    45  38  77 CALM      30.10R
$$

WIZ003>005-009-010-017-018-051400-
NORTH CENTRAL WISCONSIN

CITY           SKY/WX    TMP DP  RH WIND       PRES   REMARKS
MANITOWISH WTR CLOUDY    39  38  96 CALM      30.03R
ARBOR VITAE    SUNNY     42  35  77 CALM      30.03S
WOODRUFF       SUNNY     42  35  77 CALM      30.03S
RHINELANDER    SUNNY     42  33  70 CALM      30.04R
EAGLE RIVER    SUNNY     39  35  83 CALM      30.03R
LAND O LAKES   SUNNY     39  35  86 CALM      30.03S
PHILLIPS       CLOUDY    38  33  82 CALM      30.05R
TOMAHAWK       SUNNY     38  34  85 CALM      30.05R
MEDFORD        SUNNY     40  34  80 CALM      30.04S
MERRILL        SUNNY     41  36  81 CALM      30.05S
$$

WIZ029-030-035-036-043>047-051400-
CENTRAL WISCONSIN

CITY           SKY/WX    TMP DP  RH WIND       PRES   REMARKS
WAUSAU         SUNNY     44  33  65 N5        30.04R
MOSINEE        SUNNY     41  36  81 N5        30.05R
MARSHFIELD     SUNNY     45  34  65 NE6       30.04R
STEVENS POINT  SUNNY     40  32  74 N5        30.05R
WAUPACA        SUNNY     43  33  68 N8        30.05R
WAUTOMA        SUNNY     43  33  68 N7        30.05
WISC RAPIDS    SUNNY     44  32  62 N6        30.07R
CAMP DOUGLAS   MOSUNNY   43  43 100 VRB6      30.06R
$$

WIZ011>013-019>022-031-037>040-048>050-051400-
NORTHEAST WISCONSIN

CITY           SKY/WX    TMP DP  RH WIND       PRES   REMARKS
ANTIGO         SUNNY     39  34  82 CALM      30.03S
SHAWANO        SUNNY     44  34  67 N6        30.04S
OCONTO         SUNNY     41  34  76 N7        30.04R
STURGEON BAY   SUNNY     41  34  75 N10       30.05R
GREEN BAY      SUNNY     42  34  73 N9        30.04R
MANITOWOC      SUNNY     43  35  73 N12       30.03R
APPLETON       SUNNY     39  32  75 NE10      30.01R WCI  32
CLINTONVILLE   SUNNY     41  32  70 N8        30.04R
OSHKOSH        SUNNY     43  32  65 N9        30.03R
$$

WIZ032>034-041-042-053>061-051400-
SOUTHWEST WISCONSIN

CITY           SKY/WX    TMP DP  RH WIND       PRES   REMARKS
LA CROSSE      SUNNY     47  35  63 NW3       30.07R
SPARTA         MOSUNNY   38  34  84 CALM      30.07R
VIROQUA        SUNNY     43  35  75 CALM      30.05R
BOSCOBEL       SUNNY     46  37  71 CALM      30.07R
PRAIRIE DU CHI SUNNY     46  35  65 CALM      30.07R
PLATTEVILLE    SUNNY     44  36  74 N6        30.04R
$$

WIZ056-057-062-063-064-067-068-051400-
SOUTH CENTRAL WISCONSIN

CITY           SKY/WX    TMP DP  RH WIND       PRES   REMARKS
REEDSBURG      SUNNY     42  33  69 NE7       30.05R
BARABOO/DELLS  SUNNY     43  32  65 NE8       30.05R
LONE ROCK      SUNNY     46  34  62 NE5       30.06R
MINERAL POINT  SUNNY     45  34  65 N8        30.04R
MADISON        SUNNY     43  34  70 N9        30.03R
MIDDLETON      SUNNY     43  35  72 N8        30.04S
WATERTOWN      SUNNY     42  36  80 N10       30.02R
MONROE         SUNNY     41  34  75 N12       30.01S
JANESVILLE     SUNNY     45  36  70 N9        30.01R
$$

WIZ051-052-058>065-066-070>072-051400-
SOUTHEAST WISCONSIN

CITY           SKY/WX    TMP DP  RH WIND       PRES   REMARKS
MILWAUKEE      PTSUNNY   44  34  67 N13       30.00R
WAUKESHA       PTSUNNY   39  32  75 NW6       30.01R WCI  35
MILWAUKEE/TIMM CLOUDY    43  34  70 N8        30.01R
RACINE         CLOUDY    43  34  70 N18       30.01R
BURLINGTON     CLOUDY    40  33  77 N12       30.00R WCI  32
KENOSHA        CLOUDY    43  35  73 N12       29.99R
FOND DU LAC    SUNNY     45  37  73 N12       30.03R
SHEBOYGAN      SUNNY     44  34  67 N12       30.01R
WEST BEND      SUNNY     43  34  70 N8        30.01R
JUNEAU         SUNNY     40  34  79 N9        30.04R WCI  34
$$

LSZ147-162-051400-
LAKE SUPERIOR

STATION/POSITION TIME  TEMP    WIND        PRES    WAVE
                       AIR SEA DIR/SP/G            HT/PER
                 (UTC) (F)     (DEG/KT/KT) (MB)    (FT/S)
W MID LAKE BUOY  1250   38 37  190/  8/  8 1017.2F   1
DEVILS ISLAND    1300   40     250/  7/ 10 1017.9R
PORT WING        1140   35     170/  4/  5 1016.9R
SAXON HARBOR     1200   37     180/  4/  6 1016.6S
$$

LMZ867-665-643>646-051400-
LAKE MICHIGAN

STATION/POSITION TIME  TEMP    WIND        PRES    WAVE
                       AIR SEA DIR/SP/G            HT/PER
                 (UTC) (F)     (DEG/KT/KT) (MB)    (FT/S)
CHAMBERS ISLAND  1200   40     340/ 10/ 12 1016.6R
N MID LAKE BUOY  1250   38 39  350/ 10/ 10 1016.3R   2/ 4
NORTHPORT PIER   1225   39     340/ 10/ 14 1016.6R
ALGOMA LAKESHORE 1215          330/ 10/ 12   N/A
KEWAUNEE LAKESHO 1200   39     340/  7/  9 1015.2R
SHEBOYGAN LAKESH 1300   42     360/ 17/ 19 1017.1R
PORT WASHINGTON  1200   42     360/  6/ 11 1016.3R
S MID LAKE BUOY  1250   40 40   20/ 17/ 21 1014.2R   6/ 6
KENOSHA   LAKESH 1300   42      10/ 19/ 22 1015.2R
$$

TC  - TEMPERATURE IN CELSIUS
VSB - VISIBILITY IN STATUTE MILES
WCI - WIND CHILL INDEX
HX  - HEAT INDEX





USA.gov is the U.S. government's official web portal to all federal, state and local government web resources and services.